TimeCDT,TemperatureF,Dew PointF,Humidity,Sea Level PressureIn,VisibilityMPH,Wind Direction,Wind SpeedMPH,Gust SpeedMPH,PrecipitationIn,Events,Conditions,WindDirDegrees,DateUTC
12:10 AM,32.0,23.0,69,29.80,10.0,NE,17.3,28.8,N/A,,Overcast,50,2014-03-12 05:10:00
12:30 AM,32.0,23.0,69,29.82,10.0,NE,13.8,23.0,N/A,,Overcast,40,2014-03-12 05:30:00
12:50 AM,32.0,23.0,69,29.80,10.0,NE,17.3,-,N/A,,Overcast,40,2014-03-12 05:50:00
1:10 AM,32.0,23.0,69,29.80,10.0,NE,16.1,26.5,N/A,,Overcast,40,2014-03-12 06:10:00
1:30 AM,30.2,21.2,69,29.80,10.0,NE,16.1,23.0,N/A,,Overcast,40,2014-03-12 06:30:00
1:50 AM,30.2,23.0,75,29.81,10.0,NE,12.7,20.7,N/A,,Overcast,40,2014-03-12 06:50:00
2:10 AM,30.2,21.2,69,29.81,10.0,NE,16.1,27.6,N/A,,Overcast,40,2014-03-12 07:10:00
2:30 AM,30.2,21.2,69,29.80,10.0,NNE,16.1,24.2,N/A,,Overcast,30,2014-03-12 07:30:00
2:50 AM,30.2,19.4,64,29.81,10.0,NNE,16.1,23.0,N/A,,Overcast,30,2014-03-12 07:50:00
3:10 AM,30.2,19.4,64,29.80,10.0,NNE,17.3,20.7,N/A,,Overcast,30,2014-03-12 08:10:00
3:30 AM,30.2,19.4,64,29.80,10.0,NNE,11.5,20.7,N/A,,Overcast,30,2014-03-12 08:30:00
3:50 AM,28.4,19.4,69,29.79,10.0,NE,10.4,20.7,N/A,,Overcast,40,2014-03-12 08:50:00
4:10 AM,28.4,19.4,69,29.80,10.0,NNE,16.1,23.0,N/A,,Overcast,30,2014-03-12 09:10:00
4:30 AM,28.4,19.4,69,29.81,10.0,NNE,17.3,23.0,N/A,,Overcast,30,2014-03-12 09:30:00
4:50 AM,28.4,19.4,69,29.83,10.0,NNE,16.1,21.9,N/A,,Overcast,20,2014-03-12 09:50:00
5:10 AM,28.4,19.4,69,29.83,10.0,NE,18.4,24.2,N/A,,Overcast,40,2014-03-12 10:10:00
5:30 AM,28.4,17.6,64,29.84,10.0,NNE,11.5,19.6,N/A,,Overcast,30,2014-03-12 10:30:00
5:50 AM,26.6,17.6,69,29.85,10.0,NNE,13.8,20.7,N/A,,Overcast,20,2014-03-12 10:50:00
6:10 AM,26.6,17.6,69,29.85,10.0,North,13.8,24.2,N/A,,Overcast,10,2014-03-12 11:10:00
6:30 AM,26.6,17.6,69,29.86,10.0,North,11.5,19.6,N/A,,Overcast,10,2014-03-12 11:30:00
6:50 AM,24.8,17.6,74,29.87,10.0,North,15.0,24.2,N/A,,Overcast,360,2014-03-12 11:50:00
7:10 AM,23.0,15.8,74,29.87,10.0,North,17.3,26.5,N/A,,Overcast,10,2014-03-12 12:10:00
7:30 AM,23.0,12.2,63,29.89,10.0,North,10.4,-,N/A,,Overcast,360,2014-03-12 12:30:00
7:50 AM,23.0,12.2,63,29.89,10.0,North,12.7,17.3,N/A,,Overcast,10,2014-03-12 12:50:00
8:10 AM,23.0,10.4,59,29.90,10.0,North,13.8,19.6,N/A,,Overcast,10,2014-03-12 13:10:00
8:30 AM,23.0,12.2,63,29.91,10.0,North,16.1,21.9,N/A,,Overcast,10,2014-03-12 13:30:00
8:50 AM,21.2,10.4,63,29.91,10.0,NNE,13.8,24.2,N/A,,Overcast,20,2014-03-12 13:50:00
9:10 AM,21.2,12.2,68,29.92,10.0,North,13.8,20.7,N/A,,Overcast,360,2014-03-12 14:10:00
9:30 AM,21.2,12.2,68,29.93,10.0,North,10.4,16.1,N/A,,Overcast,360,2014-03-12 14:30:00
9:50 AM,19.4,10.4,68,29.94,10.0,North,15.0,19.6,N/A,,Overcast,350,2014-03-12 14:50:00
10:10 AM,19.4,5.0,54,29.95,10.0,North,15.0,20.7,N/A,,Scattered Clouds,10,2014-03-12 15:10:00
10:30 AM,19.4,5.0,54,29.95,10.0,NNE,17.3,23.0,N/A,,Clear,20,2014-03-12 15:30:00
10:50 AM,21.2,6.8,54,29.96,10.0,North,15.0,19.6,N/A,,Clear,360,2014-03-12 15:50:00
11:10 AM,19.4,3.2,49,29.97,10.0,NNE,12.7,20.7,N/A,,Clear,20,2014-03-12 16:10:00
11:30 AM,21.2,3.2,46,29.97,10.0,North,15.0,21.9,N/A,,Clear,10,2014-03-12 16:30:00
11:50 AM,21.2,3.2,46,29.97,10.0,NNW,15.0,19.6,N/A,,Clear,330,2014-03-12 16:50:00
12:10 PM,21.2,1.4,42,29.98,10.0,North,13.8,20.7,N/A,,Scattered Clouds,350,2014-03-12 17:10:00
12:30 PM,21.2,-2.2,36,29.98,10.0,NNE,15.0,21.9,N/A,,Scattered Clouds,20,2014-03-12 17:30:00
12:50 PM,21.2,-0.4,39,29.99,10.0,NNW,16.1,-,N/A,,Clear,340,2014-03-12 17:50:00
1:10 PM,21.2,-0.4,39,29.99,10.0,North,16.1,21.9,N/A,,Clear,350,2014-03-12 18:10:00
1:30 PM,21.2,-0.4,39,29.99,10.0,North,11.5,18.4,N/A,,Clear,350,2014-03-12 18:30:00
1:50 PM,21.2,-0.4,39,29.99,10.0,NNW,12.7,20.7,N/A,,Clear,340,2014-03-12 18:50:00
2:10 PM,21.2,3.2,46,29.99,10.0,NNW,12.7,18.4,N/A,,Clear,340,2014-03-12 19:10:00
2:30 PM,21.2,-0.4,39,29.99,10.0,North,13.8,17.3,N/A,,Clear,10,2014-03-12 19:30:00
2:50 PM,21.2,1.4,42,30.00,10.0,NNW,15.0,18.4,N/A,,Clear,330,2014-03-12 19:50:00
3:10 PM,21.2,-4.0,33,30.00,10.0,North,8.1,19.6,N/A,,Clear,10,2014-03-12 20:10:00
3:30 PM,21.2,1.4,42,30.01,10.0,NNW,12.7,-,N/A,,Clear,330,2014-03-12 20:30:00
3:50 PM,21.2,-0.4,39,30.01,10.0,North,12.7,17.3,N/A,,Clear,350,2014-03-12 20:50:00
4:10 PM,21.2,-0.4,39,30.02,10.0,NNW,8.1,16.1,N/A,,Clear,340,2014-03-12 21:10:00
4:30 PM,21.2,-2.2,36,30.02,10.0,North,11.5,-,N/A,,Clear,350,2014-03-12 21:30:00
4:50 PM,21.2,-4.0,33,30.03,10.0,North,12.7,17.3,N/A,,Clear,10,2014-03-12 21:50:00
5:10 PM,21.2,-0.4,39,30.04,10.0,North,8.1,-,N/A,,Clear,10,2014-03-12 22:10:00
5:30 PM,21.2,-0.4,39,30.04,10.0,NNW,9.2,-,N/A,,Clear,330,2014-03-12 22:30:00
5:50 PM,21.2,-0.4,39,30.05,10.0,North,6.9,-,N/A,,Clear,360,2014-03-12 22:50:00
6:10 PM,21.2,-0.4,39,30.05,10.0,NNE,8.1,-,N/A,,Clear,20,2014-03-12 23:10:00
6:30 PM,19.4,-2.2,39,30.05,10.0,North,8.1,-,N/A,,Clear,10,2014-03-12 23:30:00
6:50 PM,19.4,-2.2,39,30.06,10.0,NNE,5.8,-,N/A,,Clear,30,2014-03-12 23:50:00
7:10 PM,19.4,-0.4,42,30.06,10.0,NE,4.6,-,N/A,,Clear,50,2014-03-13 00:10:00
7:30 PM,17.6,-0.4,45,30.07,10.0,NE,4.6,-,N/A,,Clear,50,2014-03-13 00:30:00
7:50 PM,17.6,-0.4,45,30.08,10.0,NE,4.6,-,N/A,,Clear,50,2014-03-13 00:50:00
8:10 PM,17.6,1.4,49,30.08,10.0,ENE,3.5,-,N/A,,Clear,70,2014-03-13 01:10:00
8:30 PM,17.6,-0.4,45,30.08,10.0,Calm,Calm,-,N/A,,Clear,0,2014-03-13 01:30:00
8:50 PM,17.6,1.4,49,30.08,10.0,Calm,Calm,-,N/A,,Clear,0,2014-03-13 01:50:00
9:10 PM,15.8,3.2,58,30.09,10.0,Calm,Calm,-,N/A,,Clear,0,2014-03-13 02:10:00
9:30 PM,14.0,3.2,62,30.09,10.0,Calm,Calm,-,N/A,,Clear,0,2014-03-13 02:30:00
9:50 PM,14.0,5.0,67,30.09,10.0,Calm,Calm,-,N/A,,Clear,0,2014-03-13 02:50:00
10:10 PM,14.0,6.8,73,30.09,10.0,Calm,Calm,-,N/A,,Clear,0,2014-03-13 03:10:00
10:30 PM,14.0,5.0,67,30.09,10.0,Calm,Calm,-,N/A,,Clear,0,2014-03-13 03:30:00
10:50 PM,14.0,5.0,67,30.09,10.0,Calm,Calm,-,N/A,,Clear,0,2014-03-13 03:50:00
11:10 PM,12.2,6.8,79,30.09,10.0,Calm,Calm,-,N/A,,Clear,0,2014-03-13 04:10:00
11:30 PM,12.2,6.8,79,30.09,10.0,Calm,Calm,-,N/A,,Clear,0,2014-03-13 04:30:00
11:50 PM,12.2,5.0,73,30.09,10.0,Calm,Calm,-,N/A,,Clear,0,2014-03-13 04:50:00